Weather History for KWVI - June, 2013

Change the Weather History Date:

Friday, June 14, 2013

  Actual Average Record
Temperature  
Mean Temperature 65 °F 62 °F  
Max Temperature 83 °F 73 °F 100 °F (2000)
Min Temperature 46 °F 51 °F 46 °F (2013)
Degree Days  
Heating Degree Days 0    
Month to date heating degree days 68  
Since 1 June heating degree days 68  
Since 1 July heating degree days 2986  
Cooling Degree Days 0    
Month to date cooling degree days 0  
Year to date cooling degree days 6  
Since 1 June cooling degree days 0  
Growing Degree Days 14 (Base 50)    
Moisture  
Dew Point 47 °F    
Average Humidity 59    
Maximum Humidity 89    
Minimum Humidity 28    
Precipitation  
Precipitation 0.00 in - 0.03 in (1962)
Month to date precipitation 0.00  
Year to date precipitation 2.34  
Since 1 July precipitation 13.28  
Sea Level Pressure  
Sea Level Pressure 29.92 in    
Wind  
Wind Speed 6 mph (SSE)    
Max Wind Speed 13 mph    
Max Gust Speed 15 mph    
Visibility 10 miles    
Events      
T = Trace of Precipitation, MM = Missing Value Source: NWS Daily Summary

Daily Weather History Graph

Daily Weather History Graph

Search for Another Location

Airport or City:

Trip Planner

Search our weather history database for the weather conditions in past years. The results will help you decide how hot, cold, wet, or windy it might be!

Date:

Astronomy

Jun. 14, 2013 Rise Set
Actual Time 5:47 AM PDT 8:28 PM PDT
Civil Twilight 5:16 AM PDT 8:58 PM PDT
Nautical Twilight 4:38 AM PDT 9:37 PM PDT
Astronomical Twilight 3:55 AM PDT 10:20 PM PDT
Moon 11:20 AM PDT (6/14) No Moon Set
Length of Visible Light 15h 42m
Length of Day
14h 40m
Waxing Crescent, 31% of the Moon is Illuminated
Jun 14
Waxing Crescent
Jun 16
First Quarter
Jun 23
Full
Jun 29
Last Quarter
Jul 8
New

Hourly Weather History & Observations

Time (PDT) Temp. Dew Point Humidity Pressure Visibility Wind Dir Wind Speed Gust Speed Precip Events Conditions
12:53 AM 52.0 °F 46.9 °F 83% 30.01 in 10.0 mi Calm Calm - N/A   Clear
1:53 AM 50.0 °F 46.0 °F 86% 29.99 in 10.0 mi NW 3.5 mph - N/A   Clear
2:53 AM 48.9 °F 45.0 °F 86% 29.97 in 10.0 mi WNW 4.6 mph - N/A   Clear
3:53 AM 48.9 °F 45.0 °F 86% 29.96 in 10.0 mi NW 3.5 mph - N/A   Clear
4:53 AM 48.0 °F 44.1 °F 86% 29.96 in 10.0 mi WNW 5.8 mph - N/A   Clear
5:53 AM 46.9 °F 43.0 °F 86% 29.96 in 10.0 mi Calm Calm - N/A   Clear
6:53 AM 50.0 °F 45.0 °F 83% 29.95 in 10.0 mi NNW 3.5 mph - N/A   Clear
7:53 AM 55.9 °F 48.0 °F 75% 29.95 in 10.0 mi Calm Calm - N/A   Clear
8:53 AM 62.1 °F 46.9 °F 58% 29.96 in 10.0 mi Calm Calm - N/A   Clear
9:53 AM 69.1 °F 48.0 °F 47% 29.95 in 10.0 mi Calm Calm - N/A   Clear
10:53 AM 73.9 °F 46.0 °F 37% 29.94 in 10.0 mi Variable 3.5 mph - N/A   Clear
11:53 AM 75.9 °F 41.0 °F 29% 29.93 in 10.0 mi SSW 6.9 mph - N/A   Clear
12:53 PM 78.1 °F 42.1 °F 28% 29.92 in 10.0 mi SW 8.1 mph - N/A   Clear
1:53 PM 79.0 °F 48.0 °F 34% 29.91 in 10.0 mi South 9.2 mph - N/A   Clear
2:53 PM 82.0 °F 46.0 °F 28% 29.89 in 10.0 mi South 9.2 mph - N/A   Clear
3:53 PM 73.9 °F 48.0 °F 40% 29.88 in 10.0 mi South 8.1 mph - N/A   Clear
4:53 PM 73.0 °F 50.0 °F 44% 29.86 in 10.0 mi SE 9.2 mph - N/A   Clear
5:53 PM 69.1 °F 48.9 °F 49% 29.86 in 10.0 mi ESE 9.2 mph - N/A   Clear
6:53 PM 64.0 °F 48.9 °F 58% 29.86 in 10.0 mi SSE 9.2 mph - N/A   Clear
7:53 PM 59.0 °F 50.0 °F 72% 29.88 in 10.0 mi SE 9.2 mph - N/A   Clear
8:53 PM 55.0 °F 50.0 °F 83% 29.88 in 10.0 mi ESE 10.4 mph - N/A   Clear
9:53 PM 54.0 °F 50.0 °F 86% 29.90 in 10.0 mi ESE 5.8 mph - N/A   Clear
10:53 PM 53.1 °F 48.9 °F 86% 29.91 in 10.0 mi East 4.6 mph - N/A   Clear
11:53 PM 53.1 °F 48.9 °F 86% 29.89 in 10.0 mi NE 3.5 mph - N/A   Clear